User: anonymous   Login
Location: Ostrava
(49.8330°N, 18.2830°E)
Time: 15:08:53
(UTC+02:00)
Language:

Cosmos 2219 Rocket - Orbit

View from above orbital plane
View from above orbital plane
View from above satellite
View from above satellite

Ground track
Ground track

The orbit data is extracted from the following two-line orbital elements,

1 22220U 92076B   15110.46137100 -.00000107  00000-0 -29878-4 0  9990
2 22220 070.9990 279.3990 0011658 025.9418 004.4700 14.16360917159090
Epoch (UTC): 20 April 2015 11:04:22
Eccentricity: 0.0011658
inclination: 70.9990°
perigee height: 829 km
apogee height: 846 km
right ascension of ascending node: 279.3990°
argument of perigee: 25.9418°
revolutions per day: 14.16360917
mean anomaly at epoch: 4.4700°
orbit number at epoch: 15909

The dashed part of the orbit path shows where the satellite is in the earth's shadow,  

DLR